Regional Weather Roundup
Issued by NWS

Home | Current Version | Previous Version | Graphics & Text | Print | Product List | Glossary On
Versions: 1 2 3 4 5 6 7 8 9 10 11 12 13 14 15 16 17 18 19 20 21 22 23 24 25 26 27 28 29 30 31 32 33 34 35 36 37 38 39 40 41 42 43 44 45 46 47 48 49 50
000
ASUS43 KOAX 210402
RWRNE

WEATHER ROUNDUP FOR NEBRASKA
NATIONAL WEATHER SERVICE OMAHA NE
1100 PM CDT FRI APR 20 2018

NOTES: SATELLITE DATA IS BEING USED TO AUGMENT CLOUD COVER ABOVE
       12000 FEET.
       "FAIR" INDICATES FEW OR NO CLOUDS BELOW 12,000 FEET WITH NO
       SIGNIFICANT WEATHER AND/OR OBSTRUCTIONS TO VISIBILITY.


NEZ001>004-019>022-054>056-210500-
NEBRASKA PANHANDLE

CITY           SKY/WX    TMP DP  RH WIND       PRES   REMARKS
SCOTTSBLUFF    LGT RAIN  37  32  82 SE18      30.18R WCI  27
ALLIANCE       MIX PCPN  37  37 100 SE15      30.19S WCI  28
CHADRON        CLOUDY    40  36  86 SE9       30.22S WCI  34
GORDON         CLOUDY    38  36  94 E13       30.24S WCI  30
KIMBALL        DRIZZLE   36  36  99 SE13      30.14R WCI  28
SIDNEY         CLOUDY    36  33  89 SE16      30.17R WCI  26
$$

NEZ057>060-069>072-079>082-210500-
SOUTHWEST NEBRASKA

CITY           SKY/WX    TMP DP  RH WIND       PRES   REMARKS
NORTH PLATTE   LGT RAIN  42  38  85 E13       30.23R
IMPERIAL       CLOUDY    39  38  96 NE15      30.18S WCI  31
LEXINGTON      LGT RAIN  43  39  85 NE14      30.24R
MCCOOK         LGT RAIN  42  40  92 E10       30.20R
OGALLALA       DRIZZLE   40  39  95 E13       30.21S WCI  33
$$

NEZ005>010-023>029-035>040-094-210500-
NORTH CENTRAL NEBRASKA

CITY           SKY/WX    TMP DP  RH WIND       PRES   REMARKS
VALENTINE      CLOUDY    41  39  93 E6        30.28F
AINSWORTH      CLOUDY    41  38  91 E9        30.29S
BROKEN BOW     CLOUDY    43  38  82 NE14      30.24S
O`NEILL        CLOUDY    48  37  67 E9        30.31F
ORD            CLOUDY    44  39  82 NE8       30.27R
THEDFORD       CLOUDY    41  39  91 E8        30.26S
$$

NEZ041-046>049-061>064-073>077-083>087-210500-
SOUTH CENTRAL NEBRASKA

CITY           SKY/WX    TMP DP  RH WIND       PRES   REMARKS
GRAND ISLAND   CLOUDY    50  30  46 E10       30.27R
AURORA         CLOUDY    48  30  48 NE7       30.26S
HASTINGS       LGT RAIN  49  37  63 S16G28    30.32R
HEBRON         CLOUDY    53  29  39 NE3       30.27R
HOLDREGE       LGT RAIN  44  41  90 SE21      30.26R
KEARNEY        LGT RAIN  46  38  73 SE15      30.28R
YORK             N/A     50  30  46 E10       30.27R
$$

NEZ011>018-030>034-042>045-210500-
NORTHEAST NEBRASKA

CITY           SKY/WX    TMP DP  RH WIND       PRES   REMARKS
NORFOLK        CLOUDY    48  33  56 NE13      30.30S
ALBION         CLOUDY    50  32  50 NE8       30.30R
BLAIR          CLOUDY    52  30  41 E9        30.30S
COLUMBUS       CLOUDY    48  33  56 NE6       30.30R
FREMONT        CLOUDY    55  28  35 E8        30.29F
TEKAMAH        CLOUDY    50  31  48 NE8       30.30F
WAYNE          CLOUDY    46  37  72 NE12      30.33S
$$

NEZ050>053-065>068-078-088>093-210500-
SOUTHEAST NEBRASKA

CITY           SKY/WX    TMP DP  RH WIND       PRES   REMARKS
LINCOLN        CLOUDY    54  28  36 E10       30.29F
OMAHA EPPLEY   CLOUDY    55  27  34 E14       30.30F
BEATRICE       CLOUDY    54  30  40 E7        30.27R
FALLS CITY     CLOUDY    50  26  39 E7        30.27S
NEBRASKA CITY  CLOUDY    52  29  42 E6        30.30S
PLATTSMOUTH    CLOUDY    52  28  39 E8        30.30F
$$

NEZ044-045-051>053-067-210500-
OMAHA AREA

CITY           SKY/WX    TMP DP  RH WIND       PRES   REMARKS
OMAHA EPPLEY   CLOUDY    55  27  34 E14       30.30F
BLAIR          CLOUDY    52  30  41 E9        30.30S
FREMONT        CLOUDY    55  28  35 E8        30.29F
MILLARD        CLOUDY    56  30  37 E7        30.29F
OFFUTT AFB     CLOUDY    53  28  38 E10       30.29F
PLATTSMOUTH    CLOUDY    52  28  39 E8        30.30F
WAHOO          FAIR      52  26  36 E7        30.29S
$$




USA.gov is the U.S. government's official web portal to all federal, state and local government web resources and services.